Regional Weather Roundup
Issued by NWS State College, PA

Home | Current Version | Previous Version | Text Only | Print | Product List | Glossary Off
Versions: 1 2 3 4 5 6 7 8 9 10 11 12 13 14 15 16 17 18 19 20 21 22 23 24 25 26 27 28 29 30 31 32 33 34 35 36 37 38 39 40 41 42 43 44 45 46 47 48 49 50

000
ASUS41 KCTP 181510
RWRCTP

REGIONAL WEATHER ROUNDUP
NATIONAL WEATHER SERVICE STATE COLLEGE PA
1100 AM EDT FRI APR 18 2014

Note: "fair" indicates few or no clouds below 12,000 feet with no
significant weather and/or obstructions to visibility.

* = STATION THAT DOES NOT REPORT PRECIPITATION /E.G. RAIN...SNOW...ETC/
    THUNDER OR FOG.

PAZ002>004-007>009-013>016-020>023-029>032-181600-
WESTERN PENNSYLVANIA

CITY           SKY/WX    TMP DP  RH WIND       PRES   REMARKS
ERIE           CLOUDY    58  29  33 SW12      30.28S
MEADVILLE      CLOUDY    52  29  41 S10       30.29S
FRANKLIN*      CLOUDY    48  28  46 S9        30.33S
NEW CASTLE     FAIR      50  30  46 CALM      30.33R
BEAVER COUNTY  SUNNY     50  30  46 S3        30.31S
BUTLER*        CLOUDY    50  30  46 SE6       30.33F
PITTSBURGH INT CLOUDY    53  28  38 S8        30.31F
PITTSBURGH     CLOUDY    54  29  38 SE7       30.31F
INDIANA*       CLOUDY    50  30  46 SE5       30.35S
LATROBE        CLOUDY    55  30  38 CALM      30.34F
WASHINGTON CO* CLOUDY    54  28  37 S6        30.33F
$$

PAZ004>006-010>012-017>019-024>028-033>037-041-042-045-046-049>053-181600-
CENTRAL PENNSYLVANIA

CITY           SKY/WX    TMP DP  RH WIND       PRES   REMARKS
BRADFORD       PTSUNNY   47  28  47 S7        30.31F
DUBOIS         CLOUDY    48  31  51 VRB6      30.33S
CLEARFIELD     CLOUDY    45  32  60 E5        30.36F
JOHNSTOWN      CLOUDY    45  32  60 VRB3      30.34F
ALTOONA        PTSUNNY   43  33  68 SW5       30.40F
STATE COLLEGE  SUNNY     43  28  56 S6        30.40R
WILLIAMSPORT   CLOUDY    42  29  59 VRB5      30.43F
SELINSGROVE    CLOUDY    43  29  57 SW7       30.46F
FT INDIANTOWN  PTSUNNY   42  32  67 CALM      30.48S
CAPITAL CITY   PTSUNNY   43  32  65 E9        30.49R
HARRISBURG     CLOUDY    45  31  58 S5        30.49R
YORK           PTSUNNY   42  30  62 VRB3      30.48S
$$

PAZ038>040-043-044-047-048-054-055-060>062-067>071-181600-
EASTERN PENNSYLVANIA

CITY           SKY/WX    TMP DP  RH WIND       PRES   REMARKS
SCRANTON       CLOUDY    44  27  51 CALM      30.41F
MOUNT POCONO   CLOUDY    36  27  69 SE10      30.40F
ALLENTOWN      CLOUDY    42  28  57 VRB3      30.48F
QUAKERTOWN*    CLOUDY    41  32  70 E5        30.48F
READING        CLOUDY    43  29  57 VRB6      30.47F
LANCASTER      PTSUNNY   41  30  65 VRB6      30.48S
COATESVILLE    CLOUDY    41  28  60 E9        30.47S
POTTSTOWN      CLOUDY    41  31  67 E8        30.49F
BLUE BELL      CLOUDY    45  32  61 E5        30.48F
DOYLESTOWN     CLOUDY    41  31  67 VRB5      30.48F
WILLOW GROVE   NOT AVBL
NORTH PHILA    CLOUDY    44  29  55 NE8       30.51F
PHILADELPHIA   CLOUDY    45  29  53 E7        30.50F
$$



USA.gov is the U.S. government's official web portal to all federal, state and local government web resources and services.